This demonstration page uses our WeatherBlox Daily Observations layout. Learn more.

Left ArrowRight Arrow

Hourly Observations for May 2, 2017

Temp ( °F °C ) Dew Point ( °F °C ) Humidity (%) Winds ( mph kmh ) Pressure ( in mb ) Visibility ( mi km ) Precip ( " mm )
12:53 am 00:53 Clear 57 13.9 45 7.2 64 64 Calm 29.92 1013 10 16 0.00 0.00
1:53 am 01:53 Clear 56 13.3 47 8.3 72 72 SSE 5 7 29.93 1014 10 16 0.00 0.00
2:53 am 02:53 Clear 56 13.3 44 6.7 65 65 Calm 29.94 1014 10 16 0.00 0.00
3:53 am 03:53 Clear 51 10.6 47 8.3 86 86 Calm 29.96 1014 10 16 0.00 0.00
4:53 am 04:53 Clear 49 9.4 48 8.9 97 97 Calm 29.96 1015 10 16 0.00 0.00
5:53 am 05:53 Clear 48 8.9 47 8.3 96 96 Calm 29.97 1015 10 16 0.00 0.00
6:53 am 06:53 Sunny 49 9.4 46 7.8 90 90 Calm 29.99 1016 10 16 0.00 0.00
7:53 am 07:53 Sunny 52 11.1 46 7.8 80 80 SW 3 6 30.02 1017 10 16 0.00 0.00
8:53 am 08:53 Sunny 58 14.4 47 8.3 67 67 Calm 30.03 1017 10 16 0.00 0.00
9:53 am 09:53 Sunny 65 18.3 47 8.3 52 52 NW 8 13 30.04 1017 10 16 0.00 0.00
10:53 am 10:53 Sunny 68 20 44 6.7 42 42 WNW 10 17 30.04 1017 10 16 0.00 0.00
11:53 am 11:53 Sunny 71 21.7 42 5.6 35 35 NW 12 19 30.04 1017 10 16 0.00 0.00
12:53 pm 12:53 Sunny 73 22.8 41 5 32 32 WNW 9 15 30.04 1017 10 16 0.00 0.00
1:53 pm 13:53 Sunny 76 24.4 38 3.3 25 25 WNW 16 26 30.02 1017 10 16 0.00 0.00
2:53 pm 14:53 Sunny 77 25 33 0.6 20 20 W 13 20 30.00 1016 10 16 0.00 0.00
3:53 pm 15:53 Sunny 79 26.1 36 2.2 21 21 W 10 17 29.99 1016 10 16 0.00 0.00
4:53 pm 16:53 Sunny 79 26.1 38 3.3 23 23 WNW 9 15 29.97 1015 10 16 0.00 0.00
5:53 pm 17:53 Sunny 79 26.1 38 3.3 23 23 WNW 13 20 29.97 1015 10 16 0.00 0.00
6:53 pm 18:53 Sunny 78 25.6 37 2.8 23 23 WNW 10 17 29.97 1015 10 16 0.00 0.00
7:53 pm 19:53 Sunny 75 23.9 39 3.9 27 27 WNW 7 11 29.97 1015 10 16 0.00 0.00
8:53 pm 20:53 Clear 69 20.6 42 5.6 38 38 Calm 29.99 1016 10 16 0.00 0.00
9:53 pm 21:53 Clear 65 18.3 45 7.2 49 49 Calm 30.01 1016 10 16 0.00 0.00
10:53 pm 22:53 Clear 59 15 49 9.4 69 69 Calm 30.03 1017 10 16 0.00 0.00
11:53 pm 23:53 Clear 57 13.9 51 10.6 81 81 Calm 30.04 1017 10 16 0.00 0.00

Powered by AerisWeather